StationID,Date,MaxTemp,MinTemp,Precipitation,Snowfall,SnowDepth
"CA001095821","1969-01-01",-5.08,-20.92,23.00,23.00,
"CA001095821","1969-01-02",28.94,-13.00,8.00,8.00,
"CA001095821","1969-01-03",32.00,-5.98,0.00,0.00,
"CA001095821","1969-01-04",37.94,23.00,15.00,15.00,
"CA001095821","1969-01-05",28.04,15.08,0.00,0.00,
"CA001095821","1969-01-06",26.96,1.94,13.00,13.00,
"CA001095821","1969-01-07",21.92,1.94,0.00,0.00,
"CA001095821","1969-01-08",12.92,-11.92,20.00,20.00,
"CA001095821","1969-01-09",3.02,-2.02,38.00,38.00,
"CA001095821","1969-01-10",-7.96,-11.92,30.00,30.00,
"CA001095821","1969-01-11",-11.92,-16.06,10.00,10.00,
"CA001095821","1969-01-12",-7.06,-16.96,10.00,10.00,
"CA001095821","1969-01-13",-7.96,-14.98,20.00,20.00,
"CA001095821","1969-01-14",-4.00,-14.98,0.00,0.00,
"CA001095821","1969-01-15",-7.06,-22.00,0.00,0.00,
"CA001095821","1969-01-16",-0.94,-16.96,76.00,76.00,
"CA001095821","1969-01-17",-0.04,-11.92,3.00,3.00,
"CA001095821","1969-01-18",-0.94,-22.00,0.00,0.00,
"CA001095821","1969-01-19",-5.08,-25.06,0.00,0.00,
"CA001095821","1969-01-20",-4.00,-32.08,0.00,0.00,
"CA001095821","1969-01-21",-5.98,-36.04,0.00,0.00,
"CA001095821","1969-01-22",-7.06,-45.04,0.00,0.00,
"CA001095821","1969-01-23",-2.02,-32.98,0.00,0.00,
"CA001095821","1969-01-24",-0.04,-23.08,0.00,0.00,
"CA001095821","1969-01-25",-5.98,-34.96,0.00,0.00,
"CA001095821","1969-01-26",-11.92,-23.98,0.00,0.00,
"CA001095821","1969-01-27",-13.00,-34.96,0.00,0.00,
"CA001095821","1969-01-28",-18.94,-47.92,0.00,0.00,
"CA001095821","1969-01-29",-7.06,-47.92,0.00,0.00,
"CA001095821","1969-01-30",3.02,-47.92,20.00,20.00,
"CA001095821","1969-01-31",14.00,-13.00,0.00,0.00,
"CA001095821","1969-02-01",24.08,8.96,10.00,10.00,
"CA001095821","1969-02-02",24.98,1.04,5.00,5.00,
"CA001095821","1969-02-03",33.98,12.02,0.00,0.00,
"CA001095821","1969-02-04",37.94,15.08,0.00,0.00,
"CA001095821","1969-02-05",21.92,-0.94,0.00,0.00,
"CA001095821","1969-02-06",,-16.06,0.00,0.00,
"CA001095821","1969-02-07",,-14.08,0.00,0.00,
"CA001095821","1969-02-08",,28.04,0.00,0.00,
"CA001095821","1969-02-09",,10.94,0.00,0.00,
"CA001095821","1969-02-10",,1.04,0.00,0.00,
"CA001095821","1969-02-11",,30.02,0.00,0.00,
"CA001095821","1969-02-12",,28.04,0.00,0.00,
"CA001095821","1969-02-13",,10.04,0.00,0.00,
"CA001095821","1969-02-14",,-0.04,15.00,15.00,
"CA001095821","1969-02-15",,10.94,0.00,0.00,
"CA001095821","1969-02-16",,30.02,0.00,0.00,
"CA001095821","1969-02-17",,10.04,0.00,0.00,
"CA001095821","1969-02-18",,6.08,0.00,0.00,
"CA001095821","1969-02-19",,-0.94,0.00,0.00,
"CA001095821","1969-02-20",,-4.00,0.00,0.00,
"CA001095821","1969-02-21",,-4.00,0.00,0.00,
"CA001095821","1969-02-22",,-4.00,0.00,0.00,
"CA001095821","1969-02-23",,-4.00,0.00,0.00,
"CA001095821","1969-02-24",,3.02,0.00,0.00,
"CA001095821","1969-02-25",,3.92,10.00,10.00,
"CA001095821","1969-02-26",,1.04,30.00,30.00,
"CA001095821","1969-02-27",,10.04,0.00,0.00,
"CA001095821","1969-02-28",,-0.04,0.00,0.00,
"CA001095821","1969-03-01",,12.02,0.00,0.00,
"CA001095821","1969-03-02",,32.00,0.00,0.00,
"CA001095821","1969-03-03",,17.06,0.00,0.00,
"CA001095821","1969-03-04",,12.02,0.00,0.00,
"CA001095821","1969-03-05",,15.98,0.00,0.00,
"CA001095821","1969-03-06",,14.00,0.00,0.00,
"CA001095821","1969-03-07",,1.04,0.00,0.00,
"CA001095821","1969-03-08",,17.06,0.00,0.00,
"CA001095821","1969-03-09",,1.94,0.00,0.00,
"CA001095821","1969-03-10",39.92,-0.04,0.00,0.00,
"CA001095821","1969-03-11",39.02,1.94,0.00,0.00,
"CA001095821","1969-03-12",,3.92,0.00,0.00,
"CA001095821","1969-03-13",,6.08,0.00,0.00,
"CA001095821","1969-03-14",,19.04,10.00,10.00,
"CA001095821","1969-03-15",42.08,32.00,0.00,0.00,
"CA001095821","1969-03-16",46.94,26.96,0.00,0.00,
"CA001095821","1969-03-17",46.04,24.08,0.00,0.00,
"CA001095821","1969-03-18",46.04,24.98,0.00,0.00,
"CA001095821","1969-03-19",46.04,28.04,0.00,0.00,
"CA001095821","1969-03-20",46.04,15.08,0.00,0.00,
"CA001095821","1969-03-21",46.04,24.98,10.00,10.00,
"CA001095821","1969-03-22",35.06,21.92,20.00,20.00,
"CA001095821","1969-03-23",42.08,8.06,0.00,0.00,
"CA001095821","1969-03-24",44.06,24.08,0.00,0.00,
"CA001095821","1969-03-25",51.08,24.08,0.00,0.00,
"CA001095821","1969-03-26",53.06,19.04,0.00,0.00,
"CA001095821","1969-03-27",48.92,24.08,0.00,0.00,
"CA001095821","1969-03-28",53.96,26.06,0.00,0.00,
"CA001095821","1969-03-29",59.00,19.94,0.00,0.00,
"CA001095821","1969-03-30",60.08,32.00,36.00,0.00,
"CA001095821","1969-03-31",53.06,30.92,0.00,0.00,
"CA001095821","1969-04-01",46.04,32.00,0.00,0.00,
"CA001095821","1969-04-02",44.06,32.00,0.00,0.00,
"CA001095821","1969-04-03",42.98,17.96,0.00,0.00,
"CA001095821","1969-04-04",53.06,35.06,0.00,0.00,
"CA001095821","1969-04-05",59.00,37.04,0.00,0.00,
"CA001095821","1969-04-06",50.00,30.92,3.00,0.00,
"CA001095821","1969-04-07",55.94,21.02,0.00,0.00,
"CA001095821","1969-04-08",62.06,24.98,0.00,0.00,
"CA001095821","1969-04-09",60.08,30.92,0.00,0.00,
"CA001095821","1969-04-10",60.08,35.96,0.00,0.00,
"CA001095821","1969-04-11",60.08,30.02,0.00,0.00,
"CA001095821","1969-04-12",62.96,37.04,178.00,51.00,
"CA001095821","1969-04-13",41.00,32.00,53.00,0.00,
"CA001095821","1969-04-14",48.92,30.02,0.00,0.00,
"CA001095821","1969-04-15",53.96,28.94,0.00,0.00,
"CA001095821","1969-04-16",53.96,37.94,0.00,0.00,
"CA001095821","1969-04-17",53.06,33.98,41.00,0.00,
"CA001095821","1969-04-18",51.98,28.94,0.00,0.00,
"CA001095821","1969-04-19",46.94,28.94,0.00,0.00,
"CA001095821","1969-04-20",48.92,24.98,0.00,0.00,
"CA001095821","1969-04-21",60.98,37.04,0.00,0.00,
"CA001095821","1969-04-22",51.98,32.00,76.00,0.00,
"CA001095821","1969-04-23",53.96,33.98,99.00,0.00,
"CA001095821","1969-04-24",42.98,30.02,0.00,0.00,
"CA001095821","1969-04-25",51.08,32.00,0.00,0.00,
"CA001095821","1969-04-26",59.00,23.00,0.00,0.00,
"CA001095821","1969-04-27",59.00,33.98,0.00,0.00,
"CA001095821","1969-04-28",55.04,35.96,89.00,0.00,
"CA001095821","1969-04-29",42.08,35.06,3.00,0.00,
"CA001095821","1969-04-30",50.00,37.94,0.00,0.00,
"CA001095821","1969-05-01",46.04,30.92,28.00,0.00,
"CA001095821","1969-05-02",42.08,32.00,99.00,51.00,
"CA001095821","1969-05-03",53.06,28.94,0.00,0.00,
"CA001095821","1969-05-04",55.04,32.00,0.00,0.00,
"CA001095821","1969-05-05",62.06,30.02,0.00,0.00,
"CA001095821","1969-05-06",62.06,24.98,0.00,0.00,
"CA001095821","1969-05-07",66.92,26.96,0.00,0.00,
"CA001095821","1969-05-08",75.02,32.00,0.00,0.00,
"CA001095821","1969-05-09",80.06,35.06,0.00,0.00,
"CA001095821","1969-05-10",75.02,35.96,0.00,0.00,
"CA001095821","1969-05-11",66.92,37.94,0.00,0.00,
"CA001095821","1969-05-12",66.02,32.00,0.00,0.00,
"CA001095821","1969-05-13",66.02,37.04,0.00,0.00,
"CA001095821","1969-05-14",57.92,35.96,0.00,0.00,
"CA001095821","1969-05-15",55.04,33.98,5.00,0.00,
"CA001095821","1969-05-16",57.02,39.02,5.00,0.00,
"CA001095821","1969-05-17",66.92,28.04,0.00,0.00,
"CA001095821","1969-05-18",66.92,30.02,0.00,0.00,
"CA001095821","1969-05-19",69.08,30.92,0.00,0.00,
"CA001095821","1969-05-20",73.94,35.06,0.00,0.00,
"CA001095821","1969-05-21",75.02,35.06,0.00,0.00,
"CA001095821","1969-05-22",78.98,39.02,0.00,0.00,
"CA001095821","1969-05-23",80.96,42.98,0.00,0.00,
"CA001095821","1969-05-24",64.94,46.94,5.00,0.00,
"CA001095821","1969-05-25",64.94,32.00,0.00,0.00,
"CA001095821","1969-05-26",60.98,46.94,0.00,0.00,
"CA001095821","1969-05-27",60.08,30.02,0.00,0.00,
"CA001095821","1969-05-28",57.92,30.02,38.00,0.00,
"CA001095821","1969-05-29",60.08,42.08,41.00,0.00,
"CA001095821","1969-05-30",62.06,39.02,0.00,0.00,
"CA001095821","1969-05-31",66.92,30.92,20.00,0.00,
"CA001095821","1969-06-01",73.94,46.94,0.00,0.00,
"CA001095821","1969-06-02",71.96,44.96,0.00,0.00,
"CA001095821","1969-06-03",82.04,51.08,0.00,0.00,
"CA001095821","1969-06-04",82.94,42.98,0.00,0.00,
"CA001095821","1969-06-05",80.96,39.92,0.00,0.00,
"CA001095821","1969-06-06",78.98,42.08,0.00,0.00,
"CA001095821","1969-06-07",82.94,39.02,0.00,0.00,
"CA001095821","1969-06-08",86.00,44.96,0.00,0.00,
"CA001095821","1969-06-09",89.96,46.04,0.00,0.00,
"CA001095821","1969-06-10",87.98,44.96,0.00,0.00,
"CA001095821","1969-06-11",89.96,48.02,0.00,0.00,
"CA001095821","1969-06-12",80.06,55.04,0.00,0.00,
"CA001095821","1969-06-13",77.00,35.96,0.00,0.00,
"CA001095821","1969-06-14",82.04,41.00,0.00,0.00,
"CA001095821","1969-06-15",84.02,44.96,0.00,0.00,
"CA001095821","1969-06-16",89.96,44.96,0.00,0.00,
"CA001095821","1969-06-17",93.02,48.92,0.00,0.00,
"CA001095821","1969-06-18",93.92,48.92,0.00,0.00,
"CA001095821","1969-06-19",80.06,55.94,71.00,0.00,
"CA001095821","1969-06-20",68.00,48.92,147.00,0.00,
"CA001095821","1969-06-21",68.00,48.92,0.00,0.00,
"CA001095821","1969-06-22",69.98,37.94,0.00,0.00,
"CA001095821","1969-06-23",69.98,48.92,41.00,0.00,
"CA001095821","1969-06-24",55.94,46.04,10.00,0.00,
"CA001095821","1969-06-25",57.92,44.06,5.00,0.00,
"CA001095821","1969-06-26",59.00,46.04,46.00,0.00,
"CA001095821","1969-06-27",64.94,48.92,203.00,0.00,
"CA001095821","1969-06-28",60.98,46.94,18.00,0.00,
"CA001095821","1969-06-29",68.00,44.96,25.00,0.00,
"CA001095821","1969-06-30",64.94,44.06,30.00,0.00,
"CA001095821","1969-07-01",73.04,44.96,0.00,0.00,
"CA001095821","1969-07-02",69.98,42.98,58.00,0.00,
"CA001095821","1969-07-03",62.06,44.06,0.00,0.00,
"CA001095821","1969-07-04",59.00,44.06,30.00,0.00,
"CA001095821","1969-07-05",64.94,42.08,43.00,0.00,
"CA001095821","1969-07-06",71.96,42.08,152.00,0.00,
"CA001095821","1969-07-07",75.02,42.98,0.00,0.00,
"CA001095821","1969-07-08",78.08,46.04,0.00,0.00,
"CA001095821","1969-07-09",82.04,44.06,0.00,0.00,
"CA001095821","1969-07-10",69.98,53.96,13.00,0.00,
"CA001095821","1969-07-11",60.08,46.94,99.00,0.00,
"CA001095821","1969-07-12",60.08,42.98,58.00,0.00,
"CA001095821","1969-07-13",53.96,39.02,0.00,0.00,
"CA001095821","1969-07-14",62.06,32.00,0.00,0.00,
"CA001095821","1969-07-15",64.04,35.96,10.00,0.00,
"CA001095821","1969-07-16",68.00,41.00,0.00,0.00,
"CA001095821","1969-07-17",69.98,35.06,0.00,0.00,
"CA001095821","1969-07-18",77.00,39.92,0.00,0.00,
"CA001095821","1969-07-19",82.94,42.98,0.00,0.00,
"CA001095821","1969-07-20",73.94,48.02,0.00,0.00,
"CA001095821","1969-07-21",71.96,37.94,0.00,0.00,
"CA001095821","1969-07-22",73.94,51.08,3.00,0.00,
"CA001095821","1969-07-23",80.06,48.02,38.00,0.00,
"CA001095821","1969-07-24",78.98,46.94,56.00,0.00,
"CA001095821","1969-07-25",66.02,42.08,0.00,0.00,
"CA001095821","1969-07-26",77.00,46.94,0.00,0.00,
"CA001095821","1969-07-27",73.04,42.08,66.00,0.00,
"CA001095821","1969-07-28",62.96,48.02,10.00,0.00,
"CA001095821","1969-07-29",71.96,39.92,0.00,0.00,
"CA001095821","1969-07-30",78.08,39.92,0.00,0.00,
"CA001095821","1969-07-31",80.06,39.92,0.00,0.00,
"CA001095821","1969-08-01",78.98,39.92,0.00,0.00,
"CA001095821","1969-08-02",69.98,39.02,0.00,0.00,
"CA001095821","1969-08-03",68.00,42.98,0.00,0.00,
"CA001095821","1969-08-04",62.96,42.98,163.00,0.00,
"CA001095821","1969-08-05",66.02,44.06,10.00,0.00,
"CA001095821","1969-08-06",73.94,39.92,0.00,0.00,
"CA001095821","1969-08-07",71.06,42.08,8.00,0.00,
"CA001095821","1969-08-08",75.02,53.06,36.00,0.00,
"CA001095821","1969-08-09",75.02,53.06,0.00,0.00,
"CA001095821","1969-08-10",71.96,44.06,0.00,0.00,
"CA001095821","1969-08-11",71.06,35.06,170.00,0.00,
"CA001095821","1969-08-12",68.00,48.02,20.00,0.00,
"CA001095821","1969-08-13",71.96,48.92,0.00,0.00,
"CA001095821","1969-08-14",68.00,44.06,0.00,0.00,
"CA001095821","1969-08-15",62.96,50.00,20.00,0.00,
"CA001095821","1969-08-16",62.06,35.96,0.00,0.00,
"CA001095821","1969-08-17",66.92,42.08,10.00,0.00,
"CA001095821","1969-08-18",68.00,50.00,10.00,0.00,
"CA001095821","1969-08-19",64.94,35.96,0.00,0.00,
"CA001095821","1969-08-20",68.00,39.02,0.00,0.00,
"CA001095821","1969-08-21",62.96,39.92,3.00,0.00,
"CA001095821","1969-08-22",66.02,28.04,0.00,0.00,
"CA001095821","1969-08-23",75.02,30.92,0.00,0.00,
"CA001095821","1969-08-24",73.94,35.96,13.00,0.00,
"CA001095821","1969-08-25",69.98,44.06,0.00,0.00,
"CA001095821","1969-08-26",73.04,35.96,0.00,0.00,
"CA001095821","1969-08-27",64.94,32.00,13.00,0.00,
"CA001095821","1969-08-28",55.04,39.92,8.00,0.00,
"CA001095821","1969-08-29",64.94,37.94,76.00,0.00,
"CA001095821","1969-08-30",64.94,44.06,0.00,0.00,
"CA001095821","1969-08-31",73.94,41.00,0.00,0.00,
"CA001095821","1969-09-01",75.92,37.94,0.00,0.00,
"CA001095821","1969-09-02",60.98,39.02,137.00,0.00,
"CA001095821","1969-09-03",48.02,42.08,71.00,0.00,
"CA001095821","1969-09-04",55.04,42.08,36.00,0.00,
"CA001095821","1969-09-05",51.08,42.08,13.00,0.00,
"CA001095821","1969-09-06",62.06,37.04,0.00,0.00,
"CA001095821","1969-09-07",73.04,39.92,0.00,0.00,
"CA001095821","1969-09-08",75.02,33.98,0.00,0.00,
"CA001095821","1969-09-09",78.98,41.00,0.00,0.00,
"CA001095821","1969-09-10",82.04,39.92,0.00,0.00,
"CA001095821","1969-09-11",80.96,42.08,0.00,0.00,
"CA001095821","1969-09-12",66.92,41.00,117.00,0.00,
"CA001095821","1969-09-13",42.08,32.00,203.00,0.00,
"CA001095821","1969-09-14",51.08,33.98,0.00,0.00,
"CA001095821","1969-09-15",53.96,26.06,3.00,0.00,
"CA001095821","1969-09-16",55.04,41.00,8.00,0.00,
"CA001095821","1969-09-17",55.94,41.00,43.00,0.00,
"CA001095821","1969-09-18",64.94,33.98,3.00,0.00,
"CA001095821","1969-09-19",60.98,37.04,13.00,0.00,
"CA001095821","1969-09-20",57.02,46.04,0.00,0.00,
"CA001095821","1969-09-21",57.92,42.98,3.00,0.00,
"CA001095821","1969-09-22",59.00,44.96,109.00,0.00,
"CA001095821","1969-09-23",57.02,44.06,0.00,0.00,
"CA001095821","1969-09-24",57.02,30.92,3.00,0.00,
"CA001095821","1969-09-25",57.92,37.94,10.00,0.00,
"CA001095821","1969-09-26",55.04,30.02,18.00,0.00,
"CA001095821","1969-09-27",55.94,42.08,10.00,0.00,
"CA001095821","1969-09-28",53.06,35.06,0.00,0.00,
"CA001095821","1969-09-29",57.92,37.94,69.00,0.00,
"CA001095821","1969-09-30",53.96,37.04,8.00,0.00,
"CA001095821","1969-10-01",42.08,32.00,145.00,0.00,
"CA001095821","1969-10-02",46.94,33.08,28.00,0.00,
"CA001095821","1969-10-03",51.08,37.04,0.00,0.00,
"CA001095821","1969-10-04",57.02,24.98,0.00,0.00,
"CA001095821","1969-10-05",64.94,30.02,0.00,0.00,
"CA001095821","1969-10-06",66.02,30.92,0.00,0.00,
"CA001095821","1969-10-07",60.08,44.06,15.00,0.00,
"CA001095821","1969-10-08",57.02,39.92,0.00,0.00,
"CA001095821","1969-10-09",53.96,26.06,0.00,0.00,
"CA001095821","1969-10-10",51.98,26.06,0.00,0.00,
"CA001095821","1969-10-11",55.04,24.98,0.00,0.00,
"CA001095821","1969-10-12",55.04,21.02,0.00,0.00,
"CA001095821","1969-10-13",53.96,19.94,0.00,0.00,
"CA001095821","1969-10-14",53.96,23.00,0.00,0.00,
"CA001095821","1969-10-15",57.92,24.08,0.00,0.00,
"CA001095821","1969-10-16",55.94,21.02,0.00,0.00,
"CA001095821","1969-10-17",55.94,19.04,0.00,0.00,
"CA001095821","1969-10-18",57.92,19.04,0.00,0.00,
"CA001095821","1969-10-19",44.96,24.98,56.00,0.00,
"CA001095821","1969-10-20",51.08,35.96,38.00,0.00,
"CA001095821","1969-10-21",53.96,33.08,33.00,0.00,
"CA001095821","1969-10-22",41.00,39.02,15.00,0.00,
"CA001095821","1969-10-23",35.96,24.08,10.00,10.00,
"CA001095821","1969-10-24",35.96,26.06,0.00,0.00,
"CA001095821","1969-10-25",35.06,21.92,0.00,0.00,
"CA001095821","1969-10-26",39.02,15.08,0.00,0.00,
"CA001095821","1969-10-27",39.92,24.98,5.00,0.00,
"CA001095821","1969-10-28",42.98,30.02,0.00,0.00,
"CA001095821","1969-10-29",46.94,28.94,3.00,0.00,
"CA001095821","1969-10-30",42.08,28.94,48.00,0.00,
"CA001095821","1969-10-31",50.00,35.96,0.00,0.00,
"CA001095821","1969-11-01",48.92,28.94,0.00,0.00,
"CA001095821","1969-11-02",48.92,42.08,0.00,0.00,
"CA001095821","1969-11-03",42.98,26.96,15.00,0.00,
"CA001095821","1969-11-04",46.94,33.08,8.00,0.00,
"CA001095821","1969-11-05",46.04,28.04,0.00,0.00,
"CA001095821","1969-11-06",48.02,35.06,0.00,0.00,
"CA001095821","1969-11-07",44.06,37.94,0.00,0.00,
"CA001095821","1969-11-08",42.98,35.96,81.00,81.00,
"CA001095821","1969-11-09",35.06,23.00,0.00,0.00,
"CA001095821","1969-11-10",37.04,28.94,61.00,0.00,
"CA001095821","1969-11-11",39.92,30.02,25.00,0.00,
"CA001095821","1969-11-12",39.92,26.06,0.00,0.00,
"CA001095821","1969-11-13",39.02,30.02,3.00,0.00,
"CA001095821","1969-11-14",42.98,30.92,10.00,10.00,
"CA001095821","1969-11-15",35.96,28.94,0.00,0.00,
"CA001095821","1969-11-16",32.00,15.08,0.00,0.00,
"CA001095821","1969-11-17",33.08,17.06,0.00,0.00,
"CA001095821","1969-11-18",42.08,26.96,0.00,0.00,
"CA001095821","1969-11-19",42.08,35.06,0.00,0.00,
"CA001095821","1969-11-20",44.96,37.04,0.00,0.00,
"CA001095821","1969-11-21",46.94,26.06,0.00,0.00,
"CA001095821","1969-11-22",41.00,28.94,8.00,8.00,
"CA001095821","1969-11-23",39.92,32.00,0.00,0.00,
"CA001095821","1969-11-24",37.94,19.04,0.00,0.00,
"CA001095821","1969-11-25",39.02,23.00,0.00,0.00,
"CA001095821","1969-11-26",37.04,17.96,0.00,0.00,
"CA001095821","1969-11-27",39.02,28.04,0.00,0.00,
"CA001095821","1969-11-28",41.00,24.08,0.00,0.00,
"CA001095821","1969-11-29",42.98,32.00,0.00,0.00,
"CA001095821","1969-11-30",46.04,33.98,0.00,0.00,
"CA001095821","1969-12-01",42.08,28.04,0.00,0.00,
"CA001095821","1969-12-02",44.06,28.04,0.00,0.00,
"CA001095821","1969-12-03",41.00,37.94,10.00,10.00,
"CA001095821","1969-12-04",39.92,24.08,0.00,0.00,
"CA001095821","1969-12-05",32.00,12.92,25.00,25.00,
"CA001095821","1969-12-06",30.02,26.06,0.00,0.00,
"CA001095821","1969-12-07",30.02,12.02,3.00,3.00,
"CA001095821","1969-12-08",30.02,26.96,81.00,81.00,
"CA001095821","1969-12-09",28.94,23.00,71.00,71.00,
"CA001095821","1969-12-10",30.92,19.94,0.00,0.00,
"CA001095821","1969-12-11",37.04,24.98,0.00,0.00,
"CA001095821","1969-12-12",42.98,23.00,0.00,0.00,
"CA001095821","1969-12-13",39.92,19.94,0.00,0.00,
"CA001095821","1969-12-14",33.98,19.94,3.00,3.00,
"CA001095821","1969-12-15",30.02,10.94,0.00,0.00,
"CA001095821","1969-12-16",21.92,10.94,0.00,0.00,
"CA001095821","1969-12-17",35.06,15.98,5.00,5.00,
"CA001095821","1969-12-18",37.04,15.98,0.00,0.00,
"CA001095821","1969-12-19",35.06,19.04,51.00,51.00,
"CA001095821","1969-12-20",33.08,24.98,36.00,36.00,
"CA001095821","1969-12-21",33.08,19.94,86.00,86.00,
"CA001095821","1969-12-22",35.06,12.92,0.00,0.00,
"CA001095821","1969-12-23",33.08,17.06,0.00,0.00,
"CA001095821","1969-12-24",26.06,-2.02,0.00,0.00,
"CA001095821","1969-12-25",30.02,10.94,5.00,5.00,
"CA001095821","1969-12-26",24.98,15.98,0.00,0.00,
"CA001095821","1969-12-27",26.06,10.04,0.00,0.00,
"CA001095821","1969-12-28",26.96,17.06,13.00,13.00,
"CA001095821","1969-12-29",32.00,3.92,0.00,0.00,
"CA001095821","1969-12-30",30.02,3.02,0.00,0.00,
"CA001095821","1969-12-31",28.04,-2.02,0.00,0.00,
"CA001095821","1970-01-01",28.94,3.02,0.00,0.00,
"CA001095821","1970-01-02",21.02,-5.08,8.00,8.00,
"CA001095821","1970-01-03",19.04,8.06,0.00,0.00,
"CA001095821","1970-01-04",17.96,10.04,0.00,0.00,
"CA001095821","1970-01-05",21.92,3.02,0.00,0.00,
"CA001095821","1970-01-06",24.98,6.08,0.00,0.00,
"CA001095821","1970-01-07",26.06,12.92,0.00,0.00,
"CA001095821","1970-01-08",30.92,6.08,36.00,36.00,
"CA001095821","1970-01-09",26.96,19.04,23.00,23.00,
"CA001095821","1970-01-10",24.98,-0.04,25.00,25.00,
"CA001095821","1970-01-11",3.02,-4.00,0.00,0.00,
"CA001095821","1970-01-12",12.02,-14.98,5.00,5.00,
"CA001095821","1970-01-13",-9.04,-14.08,13.00,13.00,
"CA001095821","1970-01-14",-7.96,-13.00,10.00,10.00,
"CA001095821","1970-01-15",-5.98,-27.94,0.00,0.00,
"CA001095821","1970-01-16",-9.04,-29.92,0.00,0.00,
"CA001095821","1970-01-17",-4.00,-27.94,0.00,0.00,
"CA001095821","1970-01-18",15.08,-25.96,61.00,61.00,
"CA001095821","1970-01-19",28.94,-4.00,46.00,46.00,
"CA001095821","1970-01-20",37.04,17.96,51.00,51.00,
"CA001095821","1970-01-21",37.94,19.04,0.00,0.00,
"CA001095821","1970-01-22",35.96,8.96,0.00,0.00,
"CA001095821","1970-01-23",44.06,17.96,5.00,5.00,
"CA001095821","1970-01-24",37.94,21.02,0.00,0.00,
"CA001095821","1970-01-25",32.00,10.94,0.00,0.00,
"CA001095821","1970-01-26",30.92,1.94,0.00,0.00,
"CA001095821","1970-01-27",26.06,15.08,0.00,0.00,
"CA001095821","1970-01-28",26.96,-2.92,15.00,15.00,
"CA001095821","1970-01-29",30.02,-0.04,0.00,0.00,
"CA001095821","1970-01-30",32.00,8.96,28.00,28.00,
"CA001095821","1970-01-31",39.02,26.06,0.00,0.00,
"CA001095821","1970-02-01",39.92,19.94,41.00,41.00,
"CA001095821","1970-02-02",35.96,19.94,0.00,0.00,
"CA001095821","1970-02-03",35.06,12.02,0.00,0.00,
"CA001095821","1970-02-04",28.04,10.94,20.00,20.00,
"CA001095821","1970-02-05",28.94,-0.04,10.00,10.00,
"CA001095821","1970-02-06",39.02,8.06,0.00,0.00,
"CA001095821","1970-02-07",37.94,15.08,0.00,0.00,
"CA001095821","1970-02-08",39.92,21.92,0.00,0.00,
"CA001095821","1970-02-09",46.04,17.96,0.00,0.00,
"CA001095821","1970-02-10",32.00,12.92,0.00,0.00,
"CA001095821","1970-02-11",30.02,17.96,0.00,0.00,
"CA001095821","1970-02-12",24.08,19.04,0.00,0.00,
"CA001095821","1970-02-13",24.98,19.04,0.00,0.00,
"CA001095821","1970-02-14",39.02,17.96,0.00,0.00,
"CA001095821","1970-02-15",44.96,26.06,23.00,23.00,
"CA001095821","1970-02-16",42.08,15.98,0.00,0.00,
"CA001095821","1970-02-17",32.00,15.98,5.00,5.00,
"CA001095821","1970-02-18",42.08,17.96,3.00,3.00,
"CA001095821","1970-02-19",48.02,17.06,0.00,0.00,
"CA001095821","1970-02-20",42.98,17.96,0.00,0.00,
"CA001095821","1970-02-21",44.06,10.04,0.00,0.00,
"CA001095821","1970-02-22",48.02,8.06,0.00,0.00,
"CA001095821","1970-02-23",46.94,8.06,0.00,0.00,
"CA001095821","1970-02-24",46.04,6.98,0.00,0.00,
"CA001095821","1970-02-25",50.00,19.94,0.00,0.00,
"CA001095821","1970-02-26",46.94,12.02,0.00,0.00,
"CA001095821","1970-02-27",35.96,19.04,0.00,0.00,
"CA001095821","1970-02-28",28.94,-0.04,0.00,0.00,
"CA001095821","1970-03-01",28.94,3.92,0.00,0.00,
"CA001095821","1970-03-02",24.98,6.08,0.00,0.00,
"CA001095821","1970-03-03",23.00,-13.00,8.00,8.00,
"CA001095821","1970-03-04",32.00,1.94,0.00,0.00,
"CA001095821","1970-03-05",37.04,5.00,0.00,0.00,
"CA001095821","1970-03-06",44.06,28.94,0.00,0.00,
"CA001095821","1970-03-07",44.96,33.08,0.00,0.00,
"CA001095821","1970-03-08",44.06,12.02,0.00,0.00,
"CA001095821","1970-03-09",44.06,10.04,0.00,0.00,
"CA001095821","1970-03-10",44.96,6.98,0.00,0.00,
"CA001095821","1970-03-11",44.96,8.96,0.00,0.00,
"CA001095821","1970-03-12",41.00,21.02,0.00,0.00,
"CA001095821","1970-03-13",51.98,32.00,0.00,0.00,
"CA001095821","1970-03-14",46.94,35.06,0.00,0.00,
"CA001095821","1970-03-15",46.94,26.96,36.00,36.00,
"CA001095821","1970-03-16",41.00,15.98,0.00,0.00,
"CA001095821","1970-03-17",42.98,15.98,0.00,0.00,
"CA001095821","1970-03-18",48.02,12.92,0.00,0.00,
"CA001095821","1970-03-19",46.94,24.08,5.00,5.00,
"CA001095821","1970-03-20",42.98,32.00,0.00,0.00,
"CA001095821","1970-03-21",41.00,23.00,0.00,0.00,
"CA001095821","1970-03-22",42.08,23.00,30.00,30.00,
"CA001095821","1970-03-23",48.92,30.92,0.00,0.00,
"CA001095821","1970-03-24",46.94,28.04,0.00,0.00,
"CA001095821","1970-03-25",37.04,26.06,36.00,36.00,
"CA001095821","1970-03-26",44.06,19.04,0.00,0.00,
"CA001095821","1970-03-27",46.04,24.08,0.00,0.00,
"CA001095821","1970-03-28",44.96,26.06,36.00,36.00,
"CA001095821","1970-03-29",44.06,28.04,0.00,0.00,
"CA001095821","1970-03-30",46.04,21.92,0.00,0.00,
"CA001095821","1970-03-31",44.06,19.94,0.00,0.00,
"CA001095821","1970-04-01",46.94,28.04,0.00,0.00,
"CA001095821","1970-04-02",46.94,17.96,0.00,0.00,
"CA001095821","1970-04-03",48.02,21.92,0.00,0.00,
"CA001095821","1970-04-04",53.96,33.98,0.00,0.00,
"CA001095821","1970-04-05",55.94,30.02,18.00,0.00,
"CA001095821","1970-04-06",48.92,28.94,0.00,0.00,
"CA001095821","1970-04-07",41.00,21.92,0.00,0.00,
"CA001095821","1970-04-08",50.00,30.02,0.00,0.00,
"CA001095821","1970-04-09",57.92,37.94,0.00,0.00,
"CA001095821","1970-04-10",48.02,21.92,0.00,0.00,
"CA001095821","1970-04-11",42.98,24.08,0.00,0.00,
"CA001095821","1970-04-12",39.02,17.06,0.00,0.00,
"CA001095821","1970-04-13",48.92,14.00,0.00,0.00,
"CA001095821","1970-04-14",53.06,19.04,0.00,0.00,